Regional Weather Roundup
Issued by NWS Sioux Falls, SD

Home | Current Version | Previous Version | Graphics & Text | Print | Product List | Glossary On
Versions: 1 2 3 4 5 6 7 8 9 10 11 12 13 14 15 16 17 18 19 20 21 22 23 24 25 26 27 28 29 30 31 32 33 34 35 36 37 38 39 40 41 42 43 44 45 46 47 48 49 50
000
ASUS43 KFSD 232102
RWRFSD

WEATHER ROUNDUP FOR SE SOUTH DAKOTA/SW MINNESOTA/NW IOWA
NATIONAL WEATHER SERVICE SIOUX FALLS SD
400 PM CDT MON OCT 23 2017

NOTE: "FAIR" INDICATES FEW OR NO CLOUDS BELOW 12,000 FEET WITH NO
SIGNIFICANT WEATHER AND OR OBSTRUCTIONS TO VISIBILITY.


SDZ038>040-050-052>070-232200-
SOUTHEAST SOUTH DAKOTA

CITY           SKY/WX    TMP DP  RH WIND       PRES   REMARKS
BROOKINGS      PTSUNNY   52  29  41 NW22G31   29.99R
CHAMBERLAIN    PTSUNNY   58  32  38 NW21G32   30.14S
HURON          MOSUNNY   56  32  40 NW29G37   30.06S
MADISON        FAIR      54  27  35 NW35G44   30.02S
MITCHELL       PTSUNNY   58  29  33 NW24G39   30.09S
SIOUX FALLS    PTSUNNY   56  31  38 NW29G39   30.02R
WINNER         LGT RAIN  55  32  41 N24G43    30.18R
YANKTON        MOSUNNY   56  30  37 NW29G36   30.07R
$$

MNZ071-072-080-081-089-090-097-098-232200-
SOUTHWEST MINNESOTA

CITY           SKY/WX    TMP DP  RH WIND       PRES   REMARKS
FAIRMONT       CLOUDY    48  40  73 NW26G33   29.90R
JACKSON        CLOUDY    46  36  66 NW31      29.94R
LUVERNE        CLOUDY    52  30  43 N24G35    30.00S
MARSHALL       CLOUDY    53  29  39 N23G36    29.96R
MONTEVIDEO     CLOUDY    54  30  40 N24       29.95R
PIPESTONE      PTSUNNY   52  28  40 N21G29    29.99R
REDWOOD FALLS  CLOUDY    51  31  46 NW23G35   29.92S
TRACY          CLOUDY    52  35  51 NW22G32   29.96S
WORTHINGTON    CLOUDY    49  34  56 NW23G35   29.98R
$$

IAZ001>003-012>014-020>022-031-032-NEZ013-014-SDZ071-232200-
NORTHWEST IOWA

CITY           SKY/WX    TMP DP  RH WIND       PRES   REMARKS
CHEROKEE       CLOUDY    53  36  52 NW22G30   29.97R
DENISON        CLOUDY    55  36  47 NW24G38   29.98R
ESTHERVILLE    CLOUDY    48  39  71 NW23G36   29.93R
LE MARS        CLOUDY    55  34  44 NW24G35   30.01R
ORANGE CITY    PTSUNNY   54  37  54 NW21G31   30.00R
SHELDON        CLOUDY    52  34  50 NW24G36   29.98R
SIOUX CITY     PTSUNNY   58  35  42 NW35G44   29.99R
SPENCER        CLOUDY    51  37  58 NW28G39   29.95R
STORM LAKE     MOSUNNY   52  34  50 NW22G33   29.95R
$$

ABBREVIATIONS USED IN REMARKS
   TC - TEMPERATURE IN CELSIUS
  WCI - WIND CHILL INDEX
   HX - HEAT INDEX
  VSB - VISIBILITY





USA.gov is the U.S. government's official web portal to all federal, state and local government web resources and services.